Location: Il Ritiro
(43.4167°N, 13.1333°E)
Time: 07:30:25
(UTC+00:00)

CZ-4C R/B - Pass Details

Date: 05 July 2020
Orbit: 632 x 1370 km, 63.4° (Epoch: 06 August)

Event Time Altitude Azimuth Distance (km) Brightness Sun altitude
Rises 23:26:17 0° 325° (NW) 3,793 6.4 -23.8°
Reaches altitude 10° 23:28:50 10° 330° (NNW) 2,940 5.7 -23.8°
Maximum altitude 23:35:52 55° 48° (NE) 1,444 3.5 -23.7°
Drops below altitude 10° 23:43:55 10° 124° (SE) 3,362 5.0 -23.5°
Enters shadow 23:45:18 - 127° (SE) 3,811 5.3 -23.5°
